Year,Month,Day,Hour,Minute,Value (Times are PST for temperature in C)
2010,07,30,00,00,17.60
2010,07,30,00,01,17.50
2010,07,30,00,02,17.50
2010,07,30,00,03,17.40
2010,07,30,00,04,17.40
2010,07,30,00,05,17.40
2010,07,30,00,06,17.30
2010,07,30,00,07,17.30
2010,07,30,00,08,17.30
2010,07,30,00,09,17.30
2010,07,30,00,10,17.20
2010,07,30,00,11,17.20
2010,07,30,00,12,17.20
2010,07,30,00,13,17.20
2010,07,30,00,14,17.10
2010,07,30,00,15,17.10
2010,07,30,00,16,17.10
2010,07,30,00,17,17.10
2010,07,30,00,18,17.00
2010,07,30,00,19,17.00
2010,07,30,00,20,17.00
2010,07,30,00,21,17.00
2010,07,30,00,22,16.90
2010,07,30,00,23,16.90
2010,07,30,00,24,16.90
2010,07,30,00,25,16.90
2010,07,30,00,26,16.90
2010,07,30,00,27,16.80
2010,07,30,00,28,16.80
2010,07,30,00,29,16.80
2010,07,30,00,30,16.80
2010,07,30,00,31,16.80
2010,07,30,00,32,16.80
2010,07,30,00,33,16.70
2010,07,30,00,34,16.70
2010,07,30,00,35,16.70
2010,07,30,00,36,16.70
2010,07,30,00,37,16.70
2010,07,30,00,38,16.60
2010,07,30,00,39,16.60
2010,07,30,00,40,16.60
2010,07,30,00,41,16.60
2010,07,30,00,42,16.60
2010,07,30,00,43,16.60
2010,07,30,00,44,16.60
2010,07,30,00,45,16.50
2010,07,30,00,46,16.50
2010,07,30,00,47,16.50
2010,07,30,00,48,16.50
2010,07,30,00,49,16.40
2010,07,30,00,50,16.40
2010,07,30,00,51,16.40
2010,07,30,00,52,16.40
2010,07,30,00,53,16.40
2010,07,30,00,54,16.40
2010,07,30,00,55,16.50
2010,07,30,00,56,16.50
2010,07,30,00,57,16.50
2010,07,30,00,58,16.50
2010,07,30,00,59,16.50
2010,07,30,01,00,16.50
2010,07,30,01,01,16.40
2010,07,30,01,02,16.40
2010,07,30,01,03,16.40
2010,07,30,01,04,16.40
2010,07,30,01,05,16.40
2010,07,30,01,06,16.40
2010,07,30,01,07,16.40
2010,07,30,01,08,16.40
2010,07,30,01,09,16.40
2010,07,30,01,10,16.40
2010,07,30,01,11,16.40
2010,07,30,01,12,16.40
2010,07,30,01,13,16.40
2010,07,30,01,14,16.30
2010,07,30,01,15,16.30
2010,07,30,01,16,16.30
2010,07,30,01,17,16.30
2010,07,30,01,18,16.30
2010,07,30,01,19,16.30
2010,07,30,01,20,16.30
2010,07,30,01,21,16.30
2010,07,30,01,22,16.30
2010,07,30,01,23,16.30
2010,07,30,01,24,16.30
2010,07,30,01,25,16.20
2010,07,30,01,26,16.20
2010,07,30,01,27,16.20
2010,07,30,01,28,16.20
2010,07,30,01,29,16.20
2010,07,30,01,30,16.10
2010,07,30,01,31,16.10
2010,07,30,01,32,16.10
2010,07,30,01,33,16.10
2010,07,30,01,34,16.00
2010,07,30,01,35,16.00
2010,07,30,01,36,15.90
2010,07,30,01,37,15.90
2010,07,30,01,38,15.90
2010,07,30,01,39,15.80
2010,07,30,01,40,15.80
2010,07,30,01,41,15.80
2010,07,30,01,42,15.70
2010,07,30,01,43,15.70
2010,07,30,01,44,15.70
2010,07,30,01,45,15.70
2010,07,30,01,46,15.60
2010,07,30,01,47,15.60
2010,07,30,01,48,15.60
2010,07,30,01,49,15.60
2010,07,30,01,50,15.50
2010,07,30,01,51,15.50
2010,07,30,01,52,15.50
2010,07,30,01,53,15.50
2010,07,30,01,54,15.50
2010,07,30,01,55,15.50
2010,07,30,01,56,15.50
2010,07,30,01,57,15.50
2010,07,30,01,58,15.40
2010,07,30,01,59,15.40
2010,07,30,02,00,15.40
2010,07,30,02,01,15.40
2010,07,30,02,02,15.40
2010,07,30,02,03,15.30
2010,07,30,02,04,15.30
2010,07,30,02,05,15.30
2010,07,30,02,06,15.20
2010,07,30,02,07,15.20
2010,07,30,02,08,15.10
2010,07,30,02,09,15.00
2010,07,30,02,10,15.00
2010,07,30,02,11,15.00
2010,07,30,02,12,15.00
2010,07,30,02,13,15.00
2010,07,30,02,14,14.90
2010,07,30,02,15,14.90
2010,07,30,02,16,14.80
2010,07,30,02,17,14.70
2010,07,30,02,18,14.70
2010,07,30,02,19,14.60
2010,07,30,02,20,14.60
2010,07,30,02,21,14.60
2010,07,30,02,22,14.50
2010,07,30,02,23,14.50
2010,07,30,02,24,14.40
2010,07,30,02,25,14.40
2010,07,30,02,26,14.30
2010,07,30,02,27,14.30
2010,07,30,02,28,14.30
2010,07,30,02,29,14.30
2010,07,30,02,30,14.30
2010,07,30,02,31,14.30
2010,07,30,02,32,14.30
2010,07,30,02,33,14.30
2010,07,30,02,34,14.30
2010,07,30,02,35,14.30
2010,07,30,02,36,14.30
2010,07,30,02,37,14.30
2010,07,30,02,38,14.30
2010,07,30,02,39,14.30
2010,07,30,02,40,14.30
2010,07,30,02,41,14.40
2010,07,30,02,42,14.40
2010,07,30,02,43,14.40
2010,07,30,02,44,14.30
2010,07,30,02,45,14.30
2010,07,30,02,46,14.30
2010,07,30,02,47,14.30
2010,07,30,02,48,14.30
2010,07,30,02,49,14.30
2010,07,30,02,50,14.30
2010,07,30,02,51,14.20
2010,07,30,02,52,14.20
2010,07,30,02,53,14.20
2010,07,30,02,54,14.20
2010,07,30,02,55,14.20
2010,07,30,02,56,14.10
2010,07,30,02,57,14.10
2010,07,30,02,58,14.10
2010,07,30,02,59,14.00
2010,07,30,03,00,14.00
2010,07,30,03,01,14.00
2010,07,30,03,02,13.90
2010,07,30,03,03,13.90
2010,07,30,03,04,13.90
2010,07,30,03,05,13.80
2010,07,30,03,06,13.80
2010,07,30,03,07,13.70
2010,07,30,03,08,13.70
2010,07,30,03,09,13.70
2010,07,30,03,10,13.70
2010,07,30,03,11,13.60
2010,07,30,03,12,13.60
2010,07,30,03,13,13.60
2010,07,30,03,14,13.60
2010,07,30,03,15,13.50
2010,07,30,03,16,13.50
2010,07,30,03,17,13.50
2010,07,30,03,18,13.50
2010,07,30,03,19,13.40
2010,07,30,03,20,13.40
2010,07,30,03,21,13.40
2010,07,30,03,22,13.40
2010,07,30,03,23,13.40
2010,07,30,03,24,13.40
2010,07,30,03,25,13.40
2010,07,30,03,26,13.40
2010,07,30,03,27,13.40
2010,07,30,03,28,13.40
2010,07,30,03,29,13.40
2010,07,30,03,30,13.40
2010,07,30,03,31,13.40
2010,07,30,03,32,13.40
2010,07,30,03,33,13.30
2010,07,30,03,34,13.30
2010,07,30,03,35,13.30
2010,07,30,03,36,13.30
2010,07,30,03,37,13.30
2010,07,30,03,38,13.30
2010,07,30,03,39,13.30
2010,07,30,03,40,13.20
2010,07,30,03,41,13.20
2010,07,30,03,42,13.20
2010,07,30,03,43,13.20
2010,07,30,03,44,13.20
2010,07,30,03,45,13.20
2010,07,30,03,46,13.20
2010,07,30,03,47,13.20
2010,07,30,03,48,13.10
2010,07,30,03,49,13.10
2010,07,30,03,50,13.10
2010,07,30,03,51,13.10
2010,07,30,03,52,13.10
2010,07,30,03,53,13.10
2010,07,30,03,54,13.10
2010,07,30,03,55,13.10
2010,07,30,03,56,13.10
2010,07,30,03,57,13.00
2010,07,30,03,58,13.00
2010,07,30,03,59,13.00
2010,07,30,04,00,13.00
2010,07,30,04,01,13.00
2010,07,30,04,02,13.00
2010,07,30,04,03,13.00
2010,07,30,04,04,13.00
2010,07,30,04,05,13.00
2010,07,30,04,06,13.00
2010,07,30,04,07,13.00
2010,07,30,04,08,13.00
2010,07,30,04,09,13.00
2010,07,30,04,10,13.00
2010,07,30,04,11,13.00
2010,07,30,04,12,13.00
2010,07,30,04,13,13.00
2010,07,30,04,14,12.90
2010,07,30,04,15,12.90
2010,07,30,04,16,12.90
2010,07,30,04,17,12.90
2010,07,30,04,18,12.90
2010,07,30,04,19,12.90
2010,07,30,04,20,12.80
2010,07,30,04,21,12.80
2010,07,30,04,22,12.80
2010,07,30,04,23,12.80
2010,07,30,04,24,12.80
2010,07,30,04,25,12.80
2010,07,30,04,26,12.80
2010,07,30,04,27,12.80
2010,07,30,04,28,12.80
2010,07,30,04,29,12.70
2010,07,30,04,30,12.70
2010,07,30,04,31,12.70
2010,07,30,04,32,12.70
2010,07,30,04,33,12.70
2010,07,30,04,34,12.60
2010,07,30,04,35,12.60
2010,07,30,04,36,12.60
2010,07,30,04,37,12.60
2010,07,30,04,38,12.60
2010,07,30,04,39,12.60
2010,07,30,04,40,12.60
2010,07,30,04,41,12.60
2010,07,30,04,42,12.60
2010,07,30,04,43,12.60
2010,07,30,04,44,12.70
2010,07,30,04,45,12.70
2010,07,30,04,46,12.70
2010,07,30,04,47,12.70
2010,07,30,04,48,12.70
2010,07,30,04,49,12.70
2010,07,30,04,50,12.70
2010,07,30,04,51,12.70
2010,07,30,04,52,12.70
2010,07,30,04,53,12.70
2010,07,30,04,54,12.80
2010,07,30,04,55,12.80
2010,07,30,04,56,12.80
2010,07,30,04,57,12.80
2010,07,30,04,58,12.80
2010,07,30,04,59,12.80
2010,07,30,05,00,12.80
2010,07,30,05,01,12.90
2010,07,30,05,02,12.90
2010,07,30,05,03,12.90
2010,07,30,05,04,13.00
2010,07,30,05,05,13.00
2010,07,30,05,06,13.00
2010,07,30,05,07,13.00
2010,07,30,05,08,13.10
2010,07,30,05,09,13.10
2010,07,30,05,10,13.10
2010,07,30,05,11,13.10
2010,07,30,05,12,13.10
2010,07,30,05,13,13.10
2010,07,30,05,14,13.10
2010,07,30,05,15,13.10
2010,07,30,05,16,13.00
2010,07,30,05,17,13.00
2010,07,30,05,18,13.00
2010,07,30,05,19,13.00
2010,07,30,05,20,12.90
2010,07,30,05,21,12.90
2010,07,30,05,22,12.90
2010,07,30,05,23,12.90
2010,07,30,05,24,12.90
2010,07,30,05,25,12.90
2010,07,30,05,26,12.90
2010,07,30,05,27,12.90
2010,07,30,05,28,12.90
2010,07,30,05,29,12.80
2010,07,30,05,30,12.80
2010,07,30,05,31,12.80
2010,07,30,05,32,12.80
2010,07,30,05,33,12.80
2010,07,30,05,34,12.80
2010,07,30,05,35,12.80
2010,07,30,05,36,12.80
2010,07,30,05,37,12.80
2010,07,30,05,38,12.80
2010,07,30,05,39,12.80
2010,07,30,05,40,12.80
2010,07,30,05,41,12.80
2010,07,30,05,42,12.80
2010,07,30,05,43,12.80
2010,07,30,05,44,12.90
2010,07,30,05,45,12.90
2010,07,30,05,46,12.90
2010,07,30,05,47,12.90
2010,07,30,05,48,12.90
2010,07,30,05,49,12.90
2010,07,30,05,50,12.90
2010,07,30,05,51,12.90
2010,07,30,05,52,12.90
2010,07,30,05,53,13.00
2010,07,30,05,54,13.00
2010,07,30,05,55,13.00
2010,07,30,05,56,13.00
2010,07,30,05,57,13.00
2010,07,30,05,58,13.00
2010,07,30,05,59,13.00
2010,07,30,06,00,13.00
2010,07,30,06,01,13.00
2010,07,30,06,02,13.00
2010,07,30,06,03,13.00
2010,07,30,06,04,13.00
2010,07,30,06,05,13.00
2010,07,30,06,06,13.00
2010,07,30,06,07,13.00
2010,07,30,06,08,13.00
2010,07,30,06,09,13.00
2010,07,30,06,10,13.10
2010,07,30,06,11,13.10
2010,07,30,06,12,13.10
2010,07,30,06,13,13.10
2010,07,30,06,14,13.10
2010,07,30,06,15,13.20
2010,07,30,06,16,13.20
2010,07,30,06,17,13.20
2010,07,30,06,18,13.20
2010,07,30,06,19,13.20
2010,07,30,06,20,13.30
2010,07,30,06,21,13.30
2010,07,30,06,22,13.30
2010,07,30,06,23,13.30
2010,07,30,06,24,13.40
2010,07,30,06,25,13.40
2010,07,30,06,26,13.40
2010,07,30,06,27,13.40
2010,07,30,06,28,13.50
2010,07,30,06,29,13.50
2010,07,30,06,30,13.60
2010,07,30,06,31,13.60
2010,07,30,06,32,13.60
2010,07,30,06,33,13.70
2010,07,30,06,34,13.70
2010,07,30,06,35,13.70
2010,07,30,06,36,13.80
2010,07,30,06,37,13.80
2010,07,30,06,38,13.80
2010,07,30,06,39,13.90
2010,07,30,06,40,13.90
2010,07,30,06,41,13.90
2010,07,30,06,42,13.90
2010,07,30,06,43,14.00
2010,07,30,06,44,14.00
2010,07,30,06,45,14.00
2010,07,30,06,46,14.00
2010,07,30,06,47,14.10
2010,07,30,06,48,14.10
2010,07,30,06,49,14.10
2010,07,30,06,50,14.10
2010,07,30,06,51,14.20
2010,07,30,06,52,14.20
2010,07,30,06,53,14.20
2010,07,30,06,54,14.20
2010,07,30,06,55,14.30
2010,07,30,06,56,14.30
2010,07,30,06,57,14.30
2010,07,30,06,58,14.30
2010,07,30,06,59,14.30
2010,07,30,07,00,14.30
2010,07,30,07,01,14.40
2010,07,30,07,02,14.40
2010,07,30,07,03,14.40
2010,07,30,07,04,14.40
2010,07,30,07,05,14.50
2010,07,30,07,06,14.50
2010,07,30,07,07,14.50
2010,07,30,07,08,14.60
2010,07,30,07,09,14.60
2010,07,30,07,10,14.60
2010,07,30,07,11,14.60
2010,07,30,07,12,14.70
2010,07,30,07,13,14.70
2010,07,30,07,14,14.70
2010,07,30,07,15,14.70
2010,07,30,07,16,14.70
2010,07,30,07,17,14.80
2010,07,30,07,18,14.80
2010,07,30,07,19,14.80
2010,07,30,07,20,14.90
2010,07,30,07,21,14.90
2010,07,30,07,22,15.00
2010,07,30,07,23,15.00
2010,07,30,07,24,15.00
2010,07,30,07,25,15.00
2010,07,30,07,26,15.00
2010,07,30,07,27,15.00
2010,07,30,07,28,15.00
2010,07,30,07,29,15.00
2010,07,30,07,30,15.00
2010,07,30,07,31,15.00
2010,07,30,07,32,15.00
2010,07,30,07,33,15.00
2010,07,30,07,34,15.00
2010,07,30,07,35,15.00
2010,07,30,07,36,15.10
2010,07,30,07,37,15.10
2010,07,30,07,38,15.20
2010,07,30,07,39,15.20
2010,07,30,07,40,15.20
2010,07,30,07,41,15.20
2010,07,30,07,42,15.30
2010,07,30,07,43,15.30
2010,07,30,07,44,15.30
2010,07,30,07,45,15.30
2010,07,30,07,46,15.30
2010,07,30,07,47,15.30
2010,07,30,07,48,15.40
2010,07,30,07,49,15.40
2010,07,30,07,50,15.40
2010,07,30,07,51,15.50
2010,07,30,07,52,15.50
2010,07,30,07,53,15.50
2010,07,30,07,54,15.60
2010,07,30,07,55,15.60
2010,07,30,07,56,15.60
2010,07,30,07,57,15.70
2010,07,30,07,58,15.70
2010,07,30,07,59,15.70
2010,07,30,08,00,15.70
2010,07,30,08,01,15.80
2010,07,30,08,02,15.80
2010,07,30,08,03,15.80
2010,07,30,08,04,15.80
2010,07,30,08,05,15.90
2010,07,30,08,06,15.90
2010,07,30,08,07,15.90
2010,07,30,08,08,16.00
2010,07,30,08,09,16.00
2010,07,30,08,10,16.00
2010,07,30,08,11,16.00
2010,07,30,08,12,16.00
2010,07,30,08,13,16.00
2010,07,30,08,14,16.00
2010,07,30,08,15,16.00
2010,07,30,08,16,16.00
2010,07,30,08,17,16.00
2010,07,30,08,18,16.00
2010,07,30,08,19,16.00
2010,07,30,08,20,16.10
2010,07,30,08,21,16.10
2010,07,30,08,22,16.10
2010,07,30,08,23,16.10
2010,07,30,08,24,16.20
2010,07,30,08,25,16.20
2010,07,30,08,26,16.20
2010,07,30,08,27,16.20
2010,07,30,08,28,16.20
2010,07,30,08,29,16.20
2010,07,30,08,30,16.20
2010,07,30,08,31,16.20
2010,07,30,08,32,16.20
2010,07,30,08,33,16.30
2010,07,30,08,34,16.30
2010,07,30,08,35,16.20
2010,07,30,08,36,16.30
2010,07,30,08,37,16.30
2010,07,30,08,38,16.30
2010,07,30,08,39,16.30
2010,07,30,08,40,16.30
2010,07,30,08,41,16.30
2010,07,30,08,42,16.40
2010,07,30,08,43,16.40
2010,07,30,08,44,16.40
2010,07,30,08,45,16.40
2010,07,30,08,46,16.40
2010,07,30,08,47,16.50
2010,07,30,08,48,16.40
2010,07,30,08,49,16.40
2010,07,30,08,50,16.40
2010,07,30,08,51,16.40
2010,07,30,08,52,16.50
2010,07,30,08,53,16.50
2010,07,30,08,54,16.60
2010,07,30,08,55,16.70
2010,07,30,08,56,16.70
2010,07,30,08,57,16.80
2010,07,30,08,58,16.80
2010,07,30,08,59,16.80
2010,07,30,09,00,16.90
2010,07,30,09,01,16.90
2010,07,30,09,02,16.90
2010,07,30,09,03,17.00
2010,07,30,09,04,17.00
2010,07,30,09,05,17.00
2010,07,30,09,06,17.00
2010,07,30,09,07,17.10
2010,07,30,09,08,17.10
2010,07,30,09,09,17.00
2010,07,30,09,10,17.00
2010,07,30,09,11,16.90
2010,07,30,09,12,16.90
2010,07,30,09,13,16.90
2010,07,30,09,14,16.90
2010,07,30,09,15,16.90
2010,07,30,09,16,17.00
2010,07,30,09,17,17.00
2010,07,30,09,18,17.00
2010,07,30,09,19,17.00
2010,07,30,09,20,17.00
2010,07,30,09,21,17.00
2010,07,30,09,22,17.00
2010,07,30,09,23,17.00
2010,07,30,09,24,16.90
2010,07,30,09,25,16.90
2010,07,30,09,26,17.00
2010,07,30,09,27,17.00
2010,07,30,09,28,17.00
2010,07,30,09,29,17.10
2010,07,30,09,30,17.00
2010,07,30,09,31,16.90
2010,07,30,09,32,16.90
2010,07,30,09,33,16.90
2010,07,30,09,34,16.90
2010,07,30,09,35,16.90
2010,07,30,09,36,16.90
2010,07,30,09,37,16.90
2010,07,30,09,38,16.90
2010,07,30,09,39,17.00
2010,07,30,09,40,17.00
2010,07,30,09,41,17.00
2010,07,30,09,42,17.10
2010,07,30,09,43,17.10
2010,07,30,09,44,17.10
2010,07,30,09,45,17.10
2010,07,30,09,46,17.20
2010,07,30,09,47,17.30
2010,07,30,09,48,17.40
2010,07,30,09,49,17.40
2010,07,30,09,50,17.50
2010,07,30,09,51,17.50
2010,07,30,09,52,17.50
2010,07,30,09,53,17.50
2010,07,30,09,54,17.50
2010,07,30,09,55,17.50
2010,07,30,09,56,17.50
2010,07,30,09,57,17.60
2010,07,30,09,58,17.60
2010,07,30,09,59,17.70
2010,07,30,10,00,17.70
2010,07,30,10,01,17.70
2010,07,30,10,02,17.70
2010,07,30,10,03,17.70
2010,07,30,10,04,17.70
2010,07,30,10,05,17.70
2010,07,30,10,06,17.70
2010,07,30,10,07,17.70
2010,07,30,10,08,17.70
2010,07,30,10,09,17.70
2010,07,30,10,10,17.70
2010,07,30,10,11,17.70
2010,07,30,10,12,17.70
2010,07,30,10,13,17.80
2010,07,30,10,14,17.80
2010,07,30,10,15,17.90
2010,07,30,10,16,18.00
2010,07,30,10,17,18.00
2010,07,30,10,18,18.10
2010,07,30,10,19,18.10
2010,07,30,10,20,18.10
2010,07,30,10,21,18.10
2010,07,30,10,22,18.10
2010,07,30,10,23,18.10
2010,07,30,10,24,18.10
2010,07,30,10,25,18.10
2010,07,30,10,26,18.10
2010,07,30,10,27,18.20
2010,07,30,10,28,18.10
2010,07,30,10,29,18.00
2010,07,30,10,30,18.00
2010,07,30,10,31,17.90
2010,07,30,10,32,17.90
2010,07,30,10,33,17.90
2010,07,30,10,34,17.90
2010,07,30,10,35,17.90
2010,07,30,10,36,17.90
2010,07,30,10,37,17.90
2010,07,30,10,38,17.90
2010,07,30,10,39,17.90
2010,07,30,10,40,17.80
2010,07,30,10,41,17.80
2010,07,30,10,42,17.80
2010,07,30,10,43,17.90
2010,07,30,10,44,17.90
2010,07,30,10,45,17.90
2010,07,30,10,46,17.90
2010,07,30,10,47,17.80
2010,07,30,10,48,17.70
2010,07,30,10,49,17.70
2010,07,30,10,50,17.70
2010,07,30,10,51,17.70
2010,07,30,10,52,17.70
2010,07,30,10,53,17.70
2010,07,30,10,54,17.80
2010,07,30,10,55,17.90
2010,07,30,10,56,17.90
2010,07,30,10,57,17.90
2010,07,30,10,58,17.90
2010,07,30,10,59,18.00
2010,07,30,11,00,18.00
2010,07,30,11,01,18.10
2010,07,30,11,02,18.10
2010,07,30,11,03,18.00
2010,07,30,11,04,18.00
2010,07,30,11,05,17.90
2010,07,30,11,06,17.90
2010,07,30,11,07,17.80
2010,07,30,11,08,17.80
2010,07,30,11,09,17.80
2010,07,30,11,10,17.80
2010,07,30,11,11,17.70
2010,07,30,11,12,17.80
2010,07,30,11,13,17.80
2010,07,30,11,14,17.90
2010,07,30,11,15,18.00
2010,07,30,11,16,18.10
2010,07,30,11,17,18.10
2010,07,30,11,18,18.10
2010,07,30,11,19,18.20
2010,07,30,11,20,18.30
2010,07,30,11,21,18.30
2010,07,30,11,22,18.40
2010,07,30,11,23,18.50
2010,07,30,11,24,18.60
2010,07,30,11,25,18.60
2010,07,30,11,26,18.60
2010,07,30,11,27,18.60
2010,07,30,11,28,18.60
2010,07,30,11,29,18.60
2010,07,30,11,30,18.50
2010,07,30,11,31,18.50
2010,07,30,11,32,18.50
2010,07,30,11,33,18.40
2010,07,30,11,34,18.40
2010,07,30,11,35,18.40
2010,07,30,11,36,18.50
2010,07,30,11,37,18.60
2010,07,30,11,38,18.60
2010,07,30,11,39,18.70
2010,07,30,11,40,18.70
2010,07,30,11,41,18.80
2010,07,30,11,42,18.80
2010,07,30,11,43,18.80
2010,07,30,11,44,18.80
2010,07,30,11,45,18.70
2010,07,30,11,46,18.60
2010,07,30,11,47,18.60
2010,07,30,11,48,18.50
2010,07,30,11,49,18.50
2010,07,30,11,50,18.40
2010,07,30,11,51,18.40
2010,07,30,11,52,18.40
2010,07,30,11,53,18.30
2010,07,30,11,54,18.30
2010,07,30,11,55,18.30
2010,07,30,11,56,18.30
2010,07,30,11,57,18.40
2010,07,30,11,58,18.50
2010,07,30,11,59,18.50
2010,07,30,12,00,18.60
2010,07,30,12,01,18.60
2010,07,30,12,02,18.60
2010,07,30,12,03,18.60
2010,07,30,12,04,18.60
2010,07,30,12,05,18.60
2010,07,30,12,06,18.50
2010,07,30,12,07,18.50
2010,07,30,12,08,18.50
2010,07,30,12,09,18.50
2010,07,30,12,10,18.50
2010,07,30,12,11,18.60
2010,07,30,12,12,18.60
2010,07,30,12,13,18.60
2010,07,30,12,14,18.60
2010,07,30,12,15,18.70
2010,07,30,12,16,18.70
2010,07,30,12,17,18.80
2010,07,30,12,18,18.70
2010,07,30,12,19,18.70
2010,07,30,12,20,18.70
2010,07,30,12,21,18.60
2010,07,30,12,22,18.50
2010,07,30,12,23,18.40
2010,07,30,12,24,18.30
2010,07,30,12,25,18.40
2010,07,30,12,26,18.40
2010,07,30,12,27,18.30
2010,07,30,12,28,18.30
2010,07,30,12,29,18.30
2010,07,30,12,30,18.40
2010,07,30,12,31,18.40
2010,07,30,12,32,18.50
2010,07,30,12,33,18.50
2010,07,30,12,34,18.50
2010,07,30,12,35,18.50
2010,07,30,12,36,18.40
2010,07,30,12,37,18.40
2010,07,30,12,38,18.40
2010,07,30,12,39,18.40
2010,07,30,12,40,18.40
2010,07,30,12,41,18.50
2010,07,30,12,42,18.50
2010,07,30,12,43,18.60
2010,07,30,12,44,18.60
2010,07,30,12,45,18.60
2010,07,30,12,46,18.60
2010,07,30,12,47,18.60
2010,07,30,12,48,18.60
2010,07,30,12,49,18.70
2010,07,30,12,50,18.70
2010,07,30,12,51,18.80
2010,07,30,12,52,18.80
2010,07,30,12,53,18.90
2010,07,30,12,54,18.90
2010,07,30,12,55,18.90
2010,07,30,12,56,19.00
2010,07,30,12,57,19.00
2010,07,30,12,58,19.00
2010,07,30,12,59,19.10
2010,07,30,13,00,19.10
2010,07,30,13,01,19.20
2010,07,30,13,02,19.20
2010,07,30,13,03,19.20
2010,07,30,13,04,19.20
2010,07,30,13,05,19.20
2010,07,30,13,06,19.10
2010,07,30,13,07,19.10
2010,07,30,13,08,19.10
2010,07,30,13,09,19.10
2010,07,30,13,10,19.20
2010,07,30,13,11,19.20
2010,07,30,13,12,19.30
2010,07,30,13,13,19.30
2010,07,30,13,14,19.50
2010,07,30,13,15,19.50
2010,07,30,13,16,19.60
2010,07,30,13,17,19.70
2010,07,30,13,18,19.70
2010,07,30,13,19,19.80
2010,07,30,13,20,19.80
2010,07,30,13,21,19.70
2010,07,30,13,22,19.70
2010,07,30,13,23,19.70
2010,07,30,13,24,19.70
2010,07,30,13,25,19.70
2010,07,30,13,26,19.70
2010,07,30,13,27,19.70
2010,07,30,13,28,19.70
2010,07,30,13,29,19.70
2010,07,30,13,30,19.70
2010,07,30,13,31,19.70
2010,07,30,13,32,19.70
2010,07,30,13,33,19.70
2010,07,30,13,34,19.70
2010,07,30,13,35,19.60
2010,07,30,13,36,19.60
2010,07,30,13,37,19.60
2010,07,30,13,38,19.60
2010,07,30,13,39,19.60
2010,07,30,13,40,19.60
2010,07,30,13,41,19.70
2010,07,30,13,42,19.80
2010,07,30,13,43,19.90
2010,07,30,13,44,20.00
2010,07,30,13,45,20.10
2010,07,30,13,46,20.10
2010,07,30,13,47,20.20
2010,07,30,13,48,20.20
2010,07,30,13,49,20.20
2010,07,30,13,50,20.30
2010,07,30,13,51,20.30
2010,07,30,13,52,20.20
2010,07,30,13,53,20.20
2010,07,30,13,54,20.10
2010,07,30,13,55,20.10
2010,07,30,13,56,20.10
2010,07,30,13,57,20.10
2010,07,30,13,58,20.10
2010,07,30,13,59,20.10
2010,07,30,14,00,20.10
2010,07,30,14,01,20.10
2010,07,30,14,02,20.10
2010,07,30,14,03,20.20
2010,07,30,14,04,20.30
2010,07,30,14,05,20.30
2010,07,30,14,06,20.30
2010,07,30,14,07,20.40
2010,07,30,14,08,20.50
2010,07,30,14,09,20.60
2010,07,30,14,10,20.70
2010,07,30,14,11,20.70
2010,07,30,14,12,20.80
2010,07,30,14,13,20.80
2010,07,30,14,14,20.80
2010,07,30,14,15,20.90
2010,07,30,14,16,20.90
2010,07,30,14,17,20.90
2010,07,30,14,18,20.90
2010,07,30,14,19,20.90
2010,07,30,14,20,21.00
2010,07,30,14,21,21.00
2010,07,30,14,22,20.90
2010,07,30,14,23,20.90
2010,07,30,14,24,20.90
2010,07,30,14,25,21.00
2010,07,30,14,26,21.10
2010,07,30,14,27,21.20
2010,07,30,14,28,21.30
2010,07,30,14,29,21.30
2010,07,30,14,30,21.40
2010,07,30,14,31,21.40
2010,07,30,14,32,21.40
2010,07,30,14,33,21.40
2010,07,30,14,34,21.40
2010,07,30,14,35,21.40
2010,07,30,14,36,21.40
2010,07,30,14,37,21.50
2010,07,30,14,38,21.50
2010,07,30,14,39,21.60
2010,07,30,14,40,21.60
2010,07,30,14,41,21.60
2010,07,30,14,42,21.60
2010,07,30,14,43,21.60
2010,07,30,14,44,21.60
2010,07,30,14,45,21.70
2010,07,30,14,46,21.80
2010,07,30,14,47,21.80
2010,07,30,14,48,21.80
2010,07,30,14,49,21.90
2010,07,30,14,50,21.90
2010,07,30,14,51,21.90
2010,07,30,14,52,22.00
2010,07,30,14,53,22.00
2010,07,30,14,54,22.00
2010,07,30,14,55,22.00
2010,07,30,14,56,22.10
2010,07,30,14,57,22.10
2010,07,30,14,58,22.20
2010,07,30,14,59,22.20
2010,07,30,15,00,22.30
2010,07,30,15,01,22.30
2010,07,30,15,02,22.30
2010,07,30,15,03,22.40
2010,07,30,15,04,22.40
2010,07,30,15,05,22.50
2010,07,30,15,06,22.60
2010,07,30,15,07,22.60
2010,07,30,15,08,22.70
2010,07,30,15,09,22.70
2010,07,30,15,10,22.70
2010,07,30,15,11,22.80
2010,07,30,15,12,22.90
2010,07,30,15,13,22.90
2010,07,30,15,14,22.80
2010,07,30,15,15,22.80
2010,07,30,15,16,22.70
2010,07,30,15,17,22.70
2010,07,30,15,18,22.60
2010,07,30,15,19,22.60
2010,07,30,15,20,22.60
2010,07,30,15,21,22.60
2010,07,30,15,22,22.60
2010,07,30,15,23,22.70
2010,07,30,15,24,22.70
2010,07,30,15,25,22.80
2010,07,30,15,26,22.80
2010,07,30,15,27,22.90
2010,07,30,15,28,23.00
2010,07,30,15,29,23.00
2010,07,30,15,30,23.00
2010,07,30,15,31,23.00
2010,07,30,15,32,22.90
2010,07,30,15,33,22.80
2010,07,30,15,34,22.80
2010,07,30,15,35,22.70
2010,07,30,15,36,22.70
2010,07,30,15,37,22.80
2010,07,30,15,38,22.90
2010,07,30,15,39,22.90
2010,07,30,15,40,23.00
2010,07,30,15,41,23.10
2010,07,30,15,42,23.10
2010,07,30,15,43,23.00
2010,07,30,15,44,22.90
2010,07,30,15,45,22.80
2010,07,30,15,46,22.80
2010,07,30,15,47,22.80
2010,07,30,15,48,22.80
2010,07,30,15,49,22.80
2010,07,30,15,50,22.90
2010,07,30,15,51,22.90
2010,07,30,15,52,23.00
2010,07,30,15,53,23.10
2010,07,30,15,54,23.20
2010,07,30,15,55,23.30
2010,07,30,15,56,23.40
2010,07,30,15,57,23.40
2010,07,30,15,58,23.50
2010,07,30,15,59,23.50
2010,07,30,16,00,23.60
2010,07,30,16,01,23.60
2010,07,30,16,02,23.60
2010,07,30,16,03,23.60
2010,07,30,16,04,23.60
2010,07,30,16,05,23.70
2010,07,30,16,06,23.70
2010,07,30,16,07,23.80
2010,07,30,16,08,23.80
2010,07,30,16,09,23.80
2010,07,30,16,10,23.80
2010,07,30,16,11,23.80
2010,07,30,16,12,23.70
2010,07,30,16,13,23.70
2010,07,30,16,14,23.70
2010,07,30,16,15,23.70
2010,07,30,16,16,23.70
2010,07,30,16,17,23.60
2010,07,30,16,18,23.60
2010,07,30,16,19,23.60
2010,07,30,16,20,23.70
2010,07,30,16,21,23.70
2010,07,30,16,22,23.70
2010,07,30,16,23,23.60
2010,07,30,16,24,23.60
2010,07,30,16,25,23.60
2010,07,30,16,26,23.60
2010,07,30,16,27,23.70
2010,07,30,16,28,23.70
2010,07,30,16,29,23.80
2010,07,30,16,30,23.80
2010,07,30,16,31,23.80
2010,07,30,16,32,23.90
2010,07,30,16,33,23.90
2010,07,30,16,34,23.90
2010,07,30,16,35,24.00
2010,07,30,16,36,24.10
2010,07,30,16,37,24.20
2010,07,30,16,38,24.20
2010,07,30,16,39,24.20
2010,07,30,16,40,24.20
2010,07,30,16,41,24.20
2010,07,30,16,42,24.10
2010,07,30,16,43,24.10
2010,07,30,16,44,24.10
2010,07,30,16,45,24.10
2010,07,30,16,46,24.10
2010,07,30,16,47,24.20
2010,07,30,16,48,24.20
2010,07,30,16,49,24.30
2010,07,30,16,50,24.30
2010,07,30,16,51,24.30
2010,07,30,16,52,24.40
2010,07,30,16,53,24.40
2010,07,30,16,54,24.40
2010,07,30,16,55,24.40
2010,07,30,16,56,24.30
2010,07,30,16,57,24.30
2010,07,30,16,58,24.20
2010,07,30,16,59,24.30
2010,07,30,17,00,24.30
2010,07,30,17,01,24.30
2010,07,30,17,02,24.40
2010,07,30,17,03,24.40
2010,07,30,17,04,24.40
2010,07,30,17,05,24.30
2010,07,30,17,06,24.30
2010,07,30,17,07,24.40
2010,07,30,17,08,24.40
2010,07,30,17,09,24.40
2010,07,30,17,10,24.40
2010,07,30,17,11,24.40
2010,07,30,17,12,24.40
2010,07,30,17,13,24.30
2010,07,30,17,14,24.30
2010,07,30,17,15,24.30
2010,07,30,17,16,24.30
2010,07,30,17,17,24.20
2010,07,30,17,18,24.10
2010,07,30,17,19,24.10